Regional Weather Roundup
Issued by NWS Glasgow, MT

Home | Current Version | Previous Version | Text Only | Print | Product List | Glossary On
Versions: 1 2 3 4 5 6 7 8 9 10 11 12 13 14 15 16 17 18 19 20 21 22 23 24 25 26 27 28
000
ASUS45 KGGW 252015
RWRGGW
HOURLY REGIONAL WEATHER ROUNDUP FOR NORTHEAST MONTANA
NATIONAL WEATHER SERVICE GLASGOW MONTANA
100 PM MST SUN FEB 25 2018

NOTE: "FAIR" INDICATES FEW OR NO CLOUDS BELOW 12,000 FEET WITH NO
SIGNIFICANT WEATHER AND/OR OBSTRUCTIONS TO VISISBILITY.

NORTHEAST MONTANA


CITY           SKY/WX    TMP DP  RH WIND       PRES   REMARKS
GLASGOW        PTSUNNY   21  12  68 E6        29.58F
PLENTYWOOD       N/A     26  12  55 SW6G14      N/A
WOLF POINT     PTSUNNY   23  11  60 W5        29.62F
JORDAN           N/A     30  20  66 W10       29.61F
WINNETT          N/A     32  21  64 S7G15       N/A
SIDNEY         PTSUNNY   26  15  63 SW15      29.64F
GLENDIVE       CLOUDY    26  17  68 SW12      29.65F
MALTA            N/A     33  23  66 SW6         N/A

FORT PECK REPORTS


CITY           SKY/WX    TMP DP  RH WIND       PRES   REMARKS
FORT PECK        N/A     33  21  61 SW12G20     N/A
THE PINES        N/A     36  14  40 SW12G20     N/A

SOUTHEAST MONTANA


CITY           SKY/WX    TMP DP  RH WIND       PRES   REMARKS
BILLINGS       PTSUNNY   31  14  49 SW16      29.70F
MILES CITY     CLOUDY    25  17  72 SW16      29.67F
BAKER          MOSUNNY   28  18  66 SW21      29.67S
LIVINGSTON     CLOUDY    30  13  49 SW30G51   29.74R

CENTRAL MONTANA


CITY           SKY/WX    TMP DP  RH WIND       PRES   REMARKS
HAVRE          PTSUNNY   30  24  78 SW29      29.52F HAZE
LEWISTOWN      PTSUNNY   29  19  66 SW25      29.59F
GREAT FALLS    PTSUNNY   31  18  58 SW25G33   29.58S
CUT BANK       PTSUNNY   30  20  66 SW32G45   29.47F
HELENA         PTSUNNY   38  14  37 W8G16     29.69F
BUTTE          CLOUDY    28  10  46 SW13      29.73F
BOZEMAN        CLOUDY    32  10  40 SW9       29.78F

WESTERN MONTANA


CITY           SKY/WX    TMP DP  RH WIND       PRES   REMARKS
MISSOULA       CLOUDY    34  20  56 S20G29    29.71F
KALISPELL      NOT AVBL

NORTH DAKOTA


CITY           SKY/WX    TMP DP  RH WIND       PRES   REMARKS
WILLISTON      PTSUNNY   24  12  60 SW13      29.62F
DICKINSON      SUNNY     28  18  66 SW16      29.63S
MINOT          SUNNY     29  17  61 W13       29.62F
BISMARCK       SUNNY     31  17  56 SW9       29.71F

SOUTHERN SASKATCHEWAN


CITY           SKY/WX    TMP DP  RH WIND       PRES   REMARKS
REGINA         PTSUNNY   21  14  73 S8        29.50F
ESTEVAN        MOSUNNY   23  12  63 SW15      29.57F
SWIFT CURRENT  NOT AVBL





USA.gov is the U.S. government's official web portal to all federal, state and local government web resources and services.